SCP
0 0 0 0 0 0 0 0 0 0 0 0 0 0 -0 0 0 0 0 0 0 0 0 0 0 0 0 0 0 0 0 0 0 0 0 0 0 0 0 0 0 -0 -0 -0 0 0 0 -0 0 0 0 0 0 0
0 0 0 0 0 0 0 0 0 0 0 0 0 0 0 0 0 0 0 0 0 0 0 0 0 0 0 0 0 0 0 0 0 0 0 0 0 0 0 0 0 0 -0 0 -0 0 0 0 0 0 0 0 0 0
0 0 0 0 0 0 0 0 0 0 0 0 0 0 0 0 0 0 0 0 0 0 0 0 0 0 0 0 0 0 0 0 0 0 0 0 0 0 0 0 0 0 0 0 0 -0 0 0 0 0 0 0 0 0
0 0 0 0 0 0 0 0 0 0 0 0 0 0 0 0 0 0 0 0 0 0 0 0 0 0 0 0 0 0 0 0 0 0 0 0 0 0 0 0 0 0 0 0 0 0 -0 0 -0 -0 0 -0 0 0
-0 0 0 0 0 0 0 0 0 0 0 0 0 0 0 0 0 0 0 0 0 0 0 0 0 0 0 0 0 0 0 0 0 0 0 0 0 0 0 0 0 0 0 0 0 0 -0 0 0 -0 -0 0 0 0
-0 0 0 -0 0 0 0 0 0 0 0 0 0 0 0 0 0 0 0 0 0 0 0 0 0 0 0 0 0 0 0 0 0 0 0 0 0 0 0 0 0 0 0 -0 0 -0 0 -0 0 0 -0 -0 -0 -0
-0 0 -0 0 0 0 0 0 0 0 0 0 0 0 0 0 0 0 0 0 0 0 0 0 0 0 0 0 0 0 0 0 0 0 0 0 0 0 0 0 0 0 0 0 -0 -0 -0 0 -0 -0 0 0 -0 -0
-0 0 -0 0 0 0 0 0 0 0 0 0 0 0 0 0 0 0 0 0 0 0 0 0 0 0 0 0 0 0 0 0 0 0 0 0 0 0 0 0 0 0 0 0 0 0 -0 0 0 0 0 0 0 -0
0 0 -0 0 0 0 0 0 0 0 0 0 0 0 0 0 0 0 0 0 0 0 0 0 0 0 0 0 0 0 0 0 0 0 0 0 0 0 0 0 0 0 0 0 0 0 0 0 0 0 0 0 -0 0
0 0 -0 0 0 0 0 0 0 0 0 0 0 0 0 0 0 0 0 0 0 0 0 0 0 0 0 0 0 0 0 0 0 0 0 0 0 0 0 0 0 0 0 0 0 0 0 0 0 0 0 0 0 0
0 0 0 0 0 0 0 0 0 0 0 0 0 0 0 0 0 0 0 0 0 0 0 0 0 0 0 0 0 0 0 0 0 0 0 0 0 0 0 0 0 0 0 -0 -0 -0 -0 -0 0 0 0 0 0 0
0 0 0 0 0 0 0 0 0 0 0 0 0 0 0 0 0 0 0 0 0 0 0 0 0 0 0 0 0 0 0 0 0 0 0 0 0 0 0 0 0 0 0 -0 -0 -0 -0 -0 -0 -0 -0 -0 -0 0
0 0 0 0 0 0 0 0 0 0 0 0 0 0 0 0 0 0 0 0 0 0 0 0 0 0 0 0 0 0 0 0 0 0 0 0 0 0 0 0 0 -0 -0 -0 -0 -0 -0 -0 -0 -0 -0 -0 -0 -0
0 0 0 0 0 0 0 0 0 0 0 0 0 0 0 0 0 0 0 0 0 0 0 0 0 0 0 0 0 0 0 0 0 0 0 0 0 0 0 0 -0 -0 -0 -0 -0 -0 -0 -0 -0 -0 -0 -0 -0 -0
0 0 0 0 0 0 0 0 0 0 0 0 0 0 0 0 0 0 0 0 0 0 0 0 0 0 0 0 0 0 0 0 0 0 0 0 0 0 -0 -0 -0 -0 -0 -0 -0 -0 -0 -0 -0 -0 -0 -0 -0 -0
0 0 0 0 0 0 0 0 0 0 0 0 0 0 0 0 0 0 0 0 0 0 0 0 0 0 0 0 0 0 0 0 0 0 0 0 0 -0 -0 -0 -0 -0 -0 -0 -0 -0 -0 -0 -0 -0 -0 -0 -0 -0
0 0 0 0 0 0 0 0 0 0 0 0 0 0 0 0 0 0 0 0 0 0 0 0 0 0 0 0 0 0 0 0 0 0 0 -0 -0 -0 -0 -0 -0 -0 -0 -0 -0 -0 -0 -0 -0 -0 -0 -0 -0 -0
0 0 0 0 0 0 0 0 0 0 0 0 0 0 0 0 0 0 0 0 0 0 0 0 0 0 0 0 0 0 0 0 0 0 0 0 -0 -0 -0 -0 -0 -0 -0 -0 -0 -0 -0 -0 -0 -0 -0 0 0 0
0 0 0 0 0 0 0 0 0 0 0 0 0 0 0 0 0 0 0 0 0 0 0 0 0 0 0 0 0 0 0 0 0 0 0 0 0 0 -0 -0 -0 -0 -0 -0 -0 -0 -0 -0 -0 -0 -0 0 0 0
0 0 0 0 0 0 0 0 0 0 0 0 0 0 0 0 0 0 0 0 0 0 0 0 0 0 0 0 0 0 0 0 0 0 0 0 0 0 0 0 0 0 -0 -0 -0 -0 -0 -0 -0 -0 -0 0 0 0
0 0 0 0 0 0 0 0 0 0 0 0 0 0 0 0 0 0 0 0 0 0 0 0 0 0 0 0 0 0 0 0 0 0 0 0 0 0 0 0 0 0 0 -0 -0 -0 -0 -0 -0 -0 0 0 0 0
0 0 0 0 0 0 0 0 0 0 0 0 0 0 0 0 0 0 0 0 0 0 0 0 0 0 0 0 0 0 0 0 0 0 0 0 0 0 0 0 0 0 0 0 0 -0 -0 0 0 0 0 0 0 0
0 0 0 0 0 0 0 0 0 0 0 0 0 0 0 0 0 0 0 0 0 0 0 0 0 0 0 0 0 0 0 0 0 0 0 0 0 0 0 0 0 0 0 0 0 0 0 0 0 0 0 0 0 0
0 0 0 0 0 0 0 0 0 0 0 0 0 0 0 0 0 0 0 0 0 0 0 0 0 0 0 0 0 0 0 0 0 0 0 0 0 0 0 0 0 0 0 0 0 0 0 0 0 0 0 0 0 0
0 0 0 0 0 0 0 0 0 0 0 0 0 0 0 0 0 0 0 0 0 0 0 0 0 0 -0 -0 0 0 0 0 0 0 0 0 0 0 0 0 0 0 0 0 0 0 0 0 0 0 0 0 0 0
0 0 0 0 0 0 0 0 0 0 0 0 0 0 0 0 0 0 0 0 0 0 0 0 -0 -0 -0 0 -0 -0 0 0 0 0 0 0 0 0 0 0 0 0 0 0 0 0 0 0 0 0 0 0 0 0
0 0 0 0 0 0 0 0 0 0 0 0 0 0 0 0 0 0 0 0 0 0 0 0 0 0 -0 -0 -0 -0 -0 -0 0 0 -0 -0 -0 -0 -0 -0 0 0 0 0 0 0 0 0 0 0 0 0 0 0
0 0 0 0 0 0 0 0 0 0 0 0 0 0 0 0 0 0 0 0 0 0 0 0 0 0 -0 -0 -0 -0 -0 0 0 0 -0 -0 -0 0 0 -0 0 0 0 0 0 0 0 0 0 0 0 0 0 0
0 0 0 0 0 0 0 0 0 0 0 0 0 0 0 0 0 0 0 0 0 0 0 -0 -0 -0 -0 -0 -0 -0 -0 -0 0 -0 -0 -0 0 0 0 0 0 0 0 0 0 0 0 0 0 0 0 0 0 0
0 0 0 0 0 0 0 0 0 0 0 0 0 0 0 0 0 0 0 0 0 -0 -0 -0 -0 -0 -0 -0 -0 -0 -0 0 -0 0 0 0 0 0 0 0 0 0 0 0 0 0 0 0 0 0 0 0 0 0
0 0 0 0 0 0 0 0 0 0 0 0 0 0 0 0 0 0 0 0 -0 -0 0 0 -0 -0 -0 -0 -0 -0 -0 0 -0 0 0 0 0 0 0 0 0 0 0 0 0 0 0 0 0 0 0 -0 -0 -0
0 0 0 0 0 0 0 0 0 0 0 0 0 0 0 0 -0 -0 0 -0 -0 0 -0 -0 -0 -0 -0 -0 -0 -0 -0 0 0 0 0 0 0 0 0 0 0 0 0 0 0 0 0 0 -0 -0 0 -0 -0 0
0 0 0 0 0 0 0 0 0 0 0 0 0 -0 -0 -0 -0 -0 0 0 0 -0 -0 -0 -0 -0 0 0 -0 -0 0 0 -0 -0 0 0 0 0 0 0 0 0 0 0 0 -0 -0 -0 0 0 0 0 0 -0
Wind_Speed_500mb
60 55 46 56 56 56 55 57 53 52 62 54 41 26 21 20 25 30 25 20 19 6 12 13 16 10 13 10 6 12 7 3 3 5 4 3 2 5 3 6 9 10 10 6 4 4 9 13 3 6 11 38 47 42
66 58 54 48 57 56 54 57 59 51 52 43 48 38 28 21 20 22 31 28 26 14 6 14 16 14 14 14 9 17 2 7 6 4 3 1 1 0 2 5 3 4 9 5 12 9 8 20 27 49 51 61 50 49
57 67 60 56 54 57 57 54 53 50 49 50 56 42 36 27 21 18 18 30 32 18 12 21 18 23 25 23 19 9 5 9 7 4 3 3 5 1 4 8 4 5 5 4 5 6 14 42 38 28 44 51 60 60
62 54 65 58 53 56 59 57 60 53 53 53 52 47 45 37 28 17 14 17 24 13 8 5 19 22 27 37 36 31 19 8 4 1 5 4 2 7 3 5 5 7 7 6 11 19 41 14 54 63 81 65 56 47
62 52 66 54 59 56 57 64 57 53 50 41 48 48 46 45 28 23 17 14 19 7 3 7 10 13 17 16 20 29 31 27 16 5 3 5 4 3 4 3 6 6 7 6 7 46 20 56 71 66 51 63 68 69
58 53 65 66 49 59 62 58 56 57 54 53 46 40 32 29 44 37 13 27 25 19 2 2 5 2 4 7 8 18 19 17 15 11 6 4 4 6 3 5 5 41 47 36 19 55 56 65 50 44 61 62 55 52
54 49 61 64 34 53 53 61 65 58 61 55 45 35 31 29 38 31 10 7 32 25 4 3 2 6 9 12 8 11 19 8 8 4 4 7 5 9 3 5 24 44 47 37 20 54 25 20 41 60 50 53 50 48
51 46 51 58 51 53 57 65 67 78 68 51 39 31 33 31 25 29 29 6 29 24 8 5 5 3 10 7 7 9 9 10 8 2 3 5 3 3 6 12 31 36 43 17 52 45 35 45 53 52 51 53 56 56
48 44 51 58 50 45 46 69 80 66 57 48 38 33 34 28 21 29 26 21 33 8 11 6 9 7 16 7 8 6 7 3 4 2 4 5 2 7 5 14 26 31 32 47 55 50 55 58 64 66 65 61 61 65
41 44 44 60 54 62 78 83 71 57 56 52 44 15 12 16 16 46 28 26 17 11 9 6 11 4 16 11 6 7 3 3 1 7 5 4 5 9 10 11 17 23 28 37 57 71 73 76 72 72 66 61 58 61
42 41 35 47 57 85 89 69 61 64 54 38 14 10 27 43 39 14 12 10 7 3 12 7 24 10 21 7 7 5 6 4 3 7 7 3 4 9 6 6 15 23 28 31 35 40 43 49 61 67 68 61 58 57
40 36 34 84 85 72 66 67 71 67 40 27 23 36 37 14 6 6 5 2 4 10 13 14 14 7 14 10 10 8 5 3 8 4 5 5 7 24 4 8 18 27 36 42 46 51 51 50 51 55 56 59 58 54
39 30 69 81 74 68 69 70 64 54 44 34 15 13 10 5 4 12 12 6 2 11 19 15 7 13 10 6 11 6 7 8 7 3 7 7 16 24 7 9 18 29 38 45 51 57 61 59 53 54 56 54 54 52
45 77 88 78 69 65 64 59 57 49 46 9 11 6 8 2 7 8 9 9 12 12 35 32 14 7 7 5 4 9 3 6 4 1 10 6 25 19 15 10 18 27 37 46 51 59 67 71 65 54 51 50 52 50
82 74 63 58 60 61 56 51 51 46 17 7 8 8 7 6 6 4 15 3 7 21 47 21 13 6 3 5 4 7 3 7 10 9 6 38 7 1 8 16 22 28 39 50 58 64 69 74 71 59 52 48 46 41
56 57 54 53 52 53 50 46 44 29 9 6 5 7 5 5 2 9 17 11 20 41 22 7 6 7 3 5 7 13 12 11 7 7 27 21 8 13 17 22 29 36 44 53 58 63 66 69 69 62 51 44 40 37
48 44 46 46 48 48 49 42 30 11 10 8 6 9 14 7 17 13 15 17 36 32 4 8 8 12 4 4 5 8 10 7 6 14 12 17 20 24 26 35 47 51 56 64 66 65 65 66 66 61 47 39 34 33
26 29 43 46 47 42 43 8 8 8 7 10 7 14 21 7 9 23 19 32 30 20 13 6 14 4 9 10 7 8 22 21 34 42 52 50 51 47 47 52 54 49 56 61 63 64 63 63 62 56 45 35 28 25
28 30 31 43 60 37 8 7 8 7 3 9 12 25 11 3 9 21 23 44 22 24 20 11 6 6 7 17 20 38 48 53 58 61 60 58 60 60 58 61 57 57 60 62 65 65 60 59 56 49 39 31 24 20
40 47 50 37 37 13 8 6 9 6 9 10 15 22 10 4 14 22 31 36 21 14 5 3 9 23 31 46 51 58 64 65 61 64 74 80 76 64 62 67 69 66 64 64 62 63 59 56 50 42 33 28 21 15
40 32 24 20 15 9 10 11 8 8 14 10 20 15 9 13 11 17 25 27 16 11 9 39 57 68 68 72 74 76 79 79 80 81 80 77 81 76 73 71 68 68 65 60 60 57 57 50 41 34 26 22 20 15
33 29 17 8 6 8 11 7 11 14 7 11 12 8 7 8 10 14 20 18 13 28 40 57 69 71 73 76 75 77 77 74 73 72 72 75 77 78 75 67 61 62 63 60 58 53 49 42 33 27 22 20 17 14
31 22 8 5 6 7 6 10 4 5 7 4 5 4 3 3 6 18 10 15 24 63 67 69 71 70 71 71 72 75 75 74 73 72 74 73 74 75 71 66 64 65 68 62 50 45 40 33 29 25 22 22 22 22
25 17 8 6 4 4 12 4 6 7 6 6 5 3 7 9 10 3 6 11 39 46 48 54 55 56 60 66 69 64 55 50 53 70 74 71 75 77 65 64 61 58 53 46 42 39 34 32 29 27 27 30 30 28
12 11 12 2 9 9 6 3 3 4 7 6 6 7 6 9 6 7 8 18 39 54 52 48 47 50 54 50 54 53 51 51 66 75 72 60 59 58 53 48 45 43 42 41 41 38 36 34 32 32 34 35 34 34
7 15 16 19 6 10 11 11 12 13 8 6 12 1 6 5 3 12 8 32 41 39 39 39 32 33 44 48 50 50 54 61 62 53 47 36 34 33 31 31 32 33 34 34 34 37 39 38 39 40 41 38 36 35
7 13 15 18 16 18 8 7 9 7 10 12 7 6 6 5 12 10 29 36 41 40 38 31 35 38 43 48 48 50 53 54 44 36 31 27 25 25 27 26 23 21 24 30 32 34 39 43 44 45 44 42 39 39
16 38 19 28 13 14 11 6 10 14 9 14 23 10 18 19 14 22 26 29 32 33 38 45 41 42 44 45 44 43 41 33 21 18 16 15 14 11 12 14 15 16 21 27 29 33 37 43 47 47 47 48 49 45
16 25 35 8 9 10 21 15 16 27 20 34 13 11 13 26 41 43 45 45 46 46 46 49 49 47 44 40 37 30 24 16 10 9 11 11 6 8 12 13 17 22 28 33 33 35 40 44 47 50 52 54 53 51
20 46 14 13 15 16 28 35 17 30 39 43 35 29 41 57 55 57 53 55 55 56 55 57 51 47 38 33 27 18 14 13 12 7 9 9 8 13 17 20 26 31 36 41 47 50 49 52 55 57 57 56 54 52
30 32 10 16 11 17 26 36 28 22 26 29 41 41 48 32 50 58 60 61 54 57 60 55 47 38 30 23 14 9 10 13 13 9 8 7 8 19 25 29 33 39 43 47 52 56 59 60 60 60 58 56 53 49
20 17 8 11 6 5 15 17 12 15 13 16 18 24 19 13 16 36 51 49 48 50 49 44 38 25 17 15 11 11 11 11 10 9 8 11 20 26 30 35 40 45 49 52 55 58 60 61 62 59 57 55 52 48
5 6 5 7 5 4 11 11 5 6 10 10 14 16 21 15 18 26 48 53 51 43 34 28 22 16 17 17 17 16 13 12 12 14 20 25 27 33 39 43 47 50 54 58 60 60 60 59 59 57 54 52 48 44
Wind_Direction_500mb
258 263 257 247 242 242 241 234 232 232 212 217 216 211 202 203 214 218 226 226 213 217 169 192 189 179 159 165 149 149 91 163 113 196 223 217 241 235 289 218 179 174 162 198 139 235 289 186 135 96 273 304 309 306
249 255 262 249 244 240 234 229 228 226 218 210 210 209 206 198 205 208 217 217 223 223 193 206 203 193 191 179 173 169 148 163 169 105 228 79 288 77 120 293 230 272 194 194 204 225 243 270 263 300 309 305 313 316
253 248 252 251 244 234 229 232 217 211 209 209 202 204 203 204 202 202 211 214 214 223 260 247 235 228 231 223 214 171 218 209 154 139 143 197 242 313 219 248 299 281 184 242 357 324 266 286 304 330 338 328 324 321
250 248 241 251 239 229 226 224 210 213 209 201 203 198 207 210 205 196 192 193 191 166 186 221 230 236 241 232 230 223 220 155 128 16 242 142 150 186 244 265 254 245 156 241 264 300 324 316 332 325 319 317 322 322
244 240 235 246 230 229 224 213 202 206 200 197 200 204 197 202 201 199 203 200 203 210 200 155 197 228 239 230 218 223 223 239 255 225 176 217 198 127 275 266 262 336 347 347 296 316 307 298 309 326 326 319 315 314
234 233 231 240 222 222 222 202 201 199 196 189 182 183 185 186 198 198 213 231 214 212 250 70 198 264 108 120 126 184 194 208 208 201 187 201 196 199 189 251 51 345 331 323 287 303 300 302 310 309 327 324 322 318
227 229 227 232 205 220 199 199 194 195 188 179 180 182 182 193 196 187 190 204 204 193 238 51 23 171 150 116 126 165 195 167 197 169 203 183 222 202 165 222 311 338 333 342 348 334 335 321 321 327 325 331 332 323
220 223 222 235 203 203 206 196 192 181 172 169 173 176 178 188 191 212 222 286 174 175 194 111 275 211 167 153 130 148 147 174 187 211 206 205 168 251 245 276 342 343 341 353 345 348 322 329 339 341 337 337 335 338
216 217 219 225 200 198 205 186 174 160 155 154 148 143 151 179 196 211 199 182 171 194 169 141 146 215 163 152 130 135 159 144 187 171 240 154 266 224 207 315 329 339 338 326 343 355 354 348 348 349 348 346 340 338
212 216 216 218 227 196 188 163 159 156 149 150 153 136 161 183 141 155 157 173 199 218 211 182 155 147 165 160 145 111 149 174 121 246 172 120 240 204 237 316 335 350 355 352 349 354 353 352 350 349 348 344 340 338
218 212 216 218 209 170 155 150 145 149 151 145 138 132 147 152 155 171 154 166 168 345 206 211 182 150 187 130 185 180 173 169 196 252 147 236 262 223 214 354 7 12 9 7 357 353 351 346 344 343 345 345 342 340
205 214 211 184 169 150 149 147 154 158 153 149 133 134 151 164 195 137 143 92 126 216 190 172 196 141 147 160 108 165 161 189 235 142 92 260 240 176 164 21 26 21 14 13 7 1 358 358 352 344 343 341 342 342
194 205 166 152 149 150 151 158 166 165 149 142 143 146 155 163 150 167 183 272 272 196 182 160 136 159 129 152 87 112 173 223 127 92 224 227 185 195 223 1 17 16 13 9 9 6 1 357 356 350 345 344 344 345
180 157 150 149 152 152 155 167 164 160 155 133 149 135 163 230 253 186 182 187 197 189 159 146 114 127 115 114 161 184 208 90 65 265 231 216 187 213 226 330 352 5 7 7 7 5 1 355 352 350 346 347 346 349
129 133 141 144 146 152 158 163 164 167 159 142 156 193 191 205 205 221 202 187 159 160 154 118 91 113 122 102 195 103 83 246 207 227 215 173 143 102 244 273 330 347 358 2 1 360 356 353 348 346 344 347 345 347
122 131 139 147 150 152 154 163 161 155 143 138 166 95 124 91 233 194 189 165 148 154 137 111 108 74 197 149 166 208 142 215 244 214 168 172 341 351 349 341 342 343 348 353 354 352 349 348 346 343 341 336 340 345
146 135 150 153 150 155 163 158 152 140 166 181 224 216 184 183 191 179 176 161 159 160 149 118 107 209 104 118 240 192 199 219 163 172 234 273 298 332 339 341 340 338 340 340 341 343 343 341 341 336 332 329 336 341
146 155 167 166 159 165 168 124 107 114 149 174 161 194 197 202 174 188 186 172 162 177 146 180 135 134 189 175 250 238 240 301 308 305 303 307 319 319 320 324 323 322 327 328 329 330 333 331 331 330 326 322 324 331
148 142 155 170 174 160 112 106 110 161 173 159 173 169 180 199 202 186 184 177 182 161 135 149 107 197 230 214 226 270 283 284 288 293 295 299 301 302 303 307 310 311 316 318 318 320 324 322 322 322 318 313 305 307
156 147 138 109 123 110 106 116 163 175 166 161 141 158 175 155 168 180 178 181 160 146 142 156 211 226 229 253 267 272 281 287 289 290 291 293 296 297 298 299 303 301 305 307 308 310 314 311 312 310 305 300 289 287
148 129 104 112 111 114 113 150 154 127 135 122 135 141 150 155 165 183 196 206 193 202 223 233 245 257 263 268 271 275 279 283 285 290 286 285 292 290 290 291 292 292 293 296 298 301 302 300 298 295 287 281 266 253
154 154 143 90 86 95 95 88 112 107 90 118 122 136 157 170 181 192 195 192 220 231 234 248 258 265 272 277 286 290 291 291 290 289 289 287 286 287 285 286 284 281 281 284 286 289 288 285 280 272 266 256 232 200
163 165 115 72 80 58 74 115 102 102 108 135 136 50 334 276 189 163 218 222 231 247 252 257 265 270 275 280 284 283 285 287 288 288 288 285 281 276 274 273 273 274 275 275 276 273 269 263 252 243 237 219 199 182
161 160 155 137 110 138 139 90 87 94 98 74 102 266 270 219 168 182 251 246 248 258 263 271 272 272 276 279 281 285 285 280 288 291 286 285 282 278 276 272 267 265 265 265 261 254 243 232 223 216 208 197 184 175
157 173 166 116 143 113 86 80 7 72 171 170 151 269 259 161 176 222 232 263 269 277 285 284 277 272 271 288 293 291 283 279 286 289 292 290 281 276 271 264 260 255 251 246 239 227 216 208 204 197 191 185 178 166
172 193 175 183 171 156 177 157 189 187 145 163 222 152 129 127 170 247 234 259 268 280 286 286 282 282 289 291 287 286 287 292 295 296 297 290 278 269 265 258 252 244 237 226 219 209 201 195 187 182 179 176 171 160
201 230 182 166 165 145 103 105 146 136 165 193 184 143 122 170 238 245 253 264 272 281 282 276 280 282 288 289 289 292 293 296 295 294 293 288 279 264 252 251 248 237 218 206 200 201 194 184 179 176 170 162 157 157
206 185 171 174 159 169 140 147 162 192 198 179 136 176 182 197 224 254 270 282 284 281 278 284 286 291 292 293 296 296 297 293 291 290 286 283 272 254 226 211 201 195 192 187 184 182 184 180 172 166 160 154 152 148
184 169 149 128 134 182 201 184 203 207 194 175 178 203 225 238 258 266 275 280 280 277 279 288 291 291 292 295 296 293 289 279 269 262 275 283 246 189 172 173 174 167 167 165 164 169 169 166 160 156 154 151 146 141
185 166 137 159 164 207 206 197 217 206 203 212 230 243 252 256 264 270 272 275 280 285 287 284 284 285 288 290 288 291 266 239 214 223 283 284 247 190 169 164 160 159 158 158 155 154 154 153 152 153 151 147 143 139
167 179 146 171 206 206 207 208 214 211 220 232 238 242 252 267 270 277 280 281 281 279 276 274 276 275 276 274 269 257 235 212 204 222 246 248 196 174 161 156 157 154 151 150 149 149 151 153 151 149 147 142 138 137
176 190 175 188 234 197 189 195 210 213 231 231 240 237 251 251 261 279 275 279 276 268 266 264 264 265 241 225 213 195 190 196 213 217 210 184 167 159 152 150 149 148 149 149 149 150 150 148 147 146 142 139 138 138
131 152 136 123 118 158 185 175 186 278 239 245 231 229 223 231 241 265 265 263 259 260 257 252 240 219 193 182 174 171 177 185 173 158 146 145 146 149 150 149 148 149 149 147 145 146 148 147 144 141 140 139 139 138
Wind_Speed_850mb
60 55 46 56 56 56 55 57 53 52 62 54 41 26 21 20 25 30 25 20 19 6 12 13 16 10 13 10 6 12 7 3 3 5 4 3 2 5 3 6 9 10 10 6 4 4 9 13 3 6 11 38 47 42
66 58 54 48 57 56 54 57 59 51 52 43 48 38 28 21 20 22 31 28 26 14 6 14 16 14 14 14 9 17 2 7 6 4 3 1 1 0 2 5 3 4 9 5 12 9 8 20 27 49 51 61 50 49
57 67 60 56 54 57 57 54 53 50 49 50 56 42 36 27 21 18 18 30 32 18 12 21 18 23 25 23 19 9 5 9 7 4 3 3 5 1 4 8 4 5 5 4 5 6 14 42 38 28 44 51 60 60
62 54 65 58 53 56 59 57 60 53 53 53 52 47 45 37 28 17 14 17 24 13 8 5 19 22 27 37 36 31 19 8 4 1 5 4 2 7 3 5 5 7 7 6 11 19 41 14 54 63 81 65 56 47
62 52 66 54 59 56 57 64 57 53 50 41 48 48 46 45 28 23 17 14 19 7 3 7 10 13 17 16 20 29 31 27 16 5 3 5 4 3 4 3 6 6 7 6 7 46 20 56 71 66 51 63 68 69
58 53 65 66 49 59 62 58 56 57 54 53 46 40 32 29 44 37 13 27 25 19 2 2 5 2 4 7 8 18 19 17 15 11 6 4 4 6 3 5 5 41 47 36 19 55 56 65 50 44 61 62 55 52
54 49 61 64 34 53 53 61 65 58 61 55 45 35 31 29 38 31 10 7 32 25 4 3 2 6 9 12 8 11 19 8 8 4 4 7 5 9 3 5 24 44 47 37 20 54 25 20 41 60 50 53 50 48
51 46 51 58 51 53 57 65 67 78 68 51 39 31 33 31 25 29 29 6 29 24 8 5 5 3 10 7 7 9 9 10 8 2 3 5 3 3 6 12 31 36 43 17 52 45 35 45 53 52 51 53 56 56
48 44 51 58 50 45 46 69 80 66 57 48 38 33 34 28 21 29 26 21 33 8 11 6 9 7 16 7 8 6 7 3 4 2 4 5 2 7 5 14 26 31 32 47 55 50 55 58 64 66 65 61 61 65
41 44 44 60 54 62 78 83 71 57 56 52 44 15 12 16 16 46 28 26 17 11 9 6 11 4 16 11 6 7 3 3 1 7 5 4 5 9 10 11 17 23 28 37 57 71 73 76 72 72 66 61 58 61
42 41 35 47 57 85 89 69 61 64 54 38 14 10 27 43 39 14 12 10 7 3 12 7 24 10 21 7 7 5 6 4 3 7 7 3 4 9 6 6 15 23 28 31 35 40 43 49 61 67 68 61 58 57
40 36 34 84 85 72 66 67 71 67 40 27 23 36 37 14 6 6 5 2 4 10 13 14 14 7 14 10 10 8 5 3 8 4 5 5 7 24 4 8 18 27 36 42 46 51 51 50 51 55 56 59 58 54
39 30 69 81 74 68 69 70 64 54 44 34 15 13 10 5 4 12 12 6 2 11 19 15 7 13 10 6 11 6 7 8 7 3 7 7 16 24 7 9 18 29 38 45 51 57 61 59 53 54 56 54 54 52
45 77 88 78 69 65 64 59 57 49 46 9 11 6 8 2 7 8 9 9 12 12 35 32 14 7 7 5 4 9 3 6 4 1 10 6 25 19 15 10 18 27 37 46 51 59 67 71 65 54 51 50 52 50
82 74 63 58 60 61 56 51 51 46 17 7 8 8 7 6 6 4 15 3 7 21 47 21 13 6 3 5 4 7 3 7 10 9 6 38 7 1 8 16 22 28 39 50 58 64 69 74 71 59 52 48 46 41
56 57 54 53 52 53 50 46 44 29 9 6 5 7 5 5 2 9 17 11 20 41 22 7 6 7 3 5 7 13 12 11 7 7 27 21 8 13 17 22 29 36 44 53 58 63 66 69 69 62 51 44 40 37
48 44 46 46 48 48 49 42 30 11 10 8 6 9 14 7 17 13 15 17 36 32 4 8 8 12 4 4 5 8 10 7 6 14 12 17 20 24 26 35 47 51 56 64 66 65 65 66 66 61 47 39 34 33
26 29 43 46 47 42 43 8 8 8 7 10 7 14 21 7 9 23 19 32 30 20 13 6 14 4 9 10 7 8 22 21 34 42 52 50 51 47 47 52 54 49 56 61 63 64 63 63 62 56 45 35 28 25
28 30 31 43 60 37 8 7 8 7 3 9 12 25 11 3 9 21 23 44 22 24 20 11 6 6 7 17 20 38 48 53 58 61 60 58 60 60 58 61 57 57 60 62 65 65 60 59 56 49 39 31 24 20
40 47 50 37 37 13 8 6 9 6 9 10 15 22 10 4 14 22 31 36 21 14 5 3 9 23 31 46 51 58 64 65 61 64 74 80 76 64 62 67 69 66 64 64 62 63 59 56 50 42 33 28 21 15
40 32 24 20 15 9 10 11 8 8 14 10 20 15 9 13 11 17 25 27 16 11 9 39 57 68 68 72 74 76 79 79 80 81 80 77 81 76 73 71 68 68 65 60 60 57 57 50 41 34 26 22 20 15
33 29 17 8 6 8 11 7 11 14 7 11 12 8 7 8 10 14 20 18 13 28 40 57 69 71 73 76 75 77 77 74 73 72 72 75 77 78 75 67 61 62 63 60 58 53 49 42 33 27 22 20 17 14
31 22 8 5 6 7 6 10 4 5 7 4 5 4 3 3 6 18 10 15 24 63 67 69 71 70 71 71 72 75 75 74 73 72 74 73 74 75 71 66 64 65 68 62 50 45 40 33 29 25 22 22 22 22
25 17 8 6 4 4 12 4 6 7 6 6 5 3 7 9 10 3 6 11 39 46 48 54 55 56 60 66 69 64 55 50 53 70 74 71 75 77 65 64 61 58 53 46 42 39 34 32 29 27 27 30 30 28
12 11 12 2 9 9 6 3 3 4 7 6 6 7 6 9 6 7 8 18 39 54 52 48 47 50 54 50 54 53 51 51 66 75 72 60 59 58 53 48 45 43 42 41 41 38 36 34 32 32 34 35 34 34
7 15 16 19 6 10 11 11 12 13 8 6 12 1 6 5 3 12 8 32 41 39 39 39 32 33 44 48 50 50 54 61 62 53 47 36 34 33 31 31 32 33 34 34 34 37 39 38 39 40 41 38 36 35
7 13 15 18 16 18 8 7 9 7 10 12 7 6 6 5 12 10 29 36 41 40 38 31 35 38 43 48 48 50 53 54 44 36 31 27 25 25 27 26 23 21 24 30 32 34 39 43 44 45 44 42 39 39
16 38 19 28 13 14 11 6 10 14 9 14 23 10 18 19 14 22 26 29 32 33 38 45 41 42 44 45 44 43 41 33 21 18 16 15 14 11 12 14 15 16 21 27 29 33 37 43 47 47 47 48 49 45
16 25 35 8 9 10 21 15 16 27 20 34 13 11 13 26 41 43 45 45 46 46 46 49 49 47 44 40 37 30 24 16 10 9 11 11 6 8 12 13 17 22 28 33 33 35 40 44 47 50 52 54 53 51
20 46 14 13 15 16 28 35 17 30 39 43 35 29 41 57 55 57 53 55 55 56 55 57 51 47 38 33 27 18 14 13 12 7 9 9 8 13 17 20 26 31 36 41 47 50 49 52 55 57 57 56 54 52
30 32 10 16 11 17 26 36 28 22 26 29 41 41 48 32 50 58 60 61 54 57 60 55 47 38 30 23 14 9 10 13 13 9 8 7 8 19 25 29 33 39 43 47 52 56 59 60 60 60 58 56 53 49
20 17 8 11 6 5 15 17 12 15 13 16 18 24 19 13 16 36 51 49 48 50 49 44 38 25 17 15 11 11 11 11 10 9 8 11 20 26 30 35 40 45 49 52 55 58 60 61 62 59 57 55 52 48
5 6 5 7 5 4 11 11 5 6 10 10 14 16 21 15 18 26 48 53 51 43 34 28 22 16 17 17 17 16 13 12 12 14 20 25 27 33 39 43 47 50 54 58 60 60 60 59 59 57 54 52 48 44
Wind_Direction_850mb
258 263 257 247 242 242 241 234 232 232 212 217 216 211 202 203 214 218 226 226 213 217 169 192 189 179 159 165 149 149 91 163 113 196 223 217 241 235 289 218 179 174 162 198 139 235 289 186 135 96 273 304 309 306
249 255 262 249 244 240 234 229 228 226 218 210 210 209 206 198 205 208 217 217 223 223 193 206 203 193 191 179 173 169 148 163 169 105 228 79 288 77 120 293 230 272 194 194 204 225 243 270 263 300 309 305 313 316
253 248 252 251 244 234 229 232 217 211 209 209 202 204 203 204 202 202 211 214 214 223 260 247 235 228 231 223 214 171 218 209 154 139 143 197 242 313 219 248 299 281 184 242 357 324 266 286 304 330 338 328 324 321
250 248 241 251 239 229 226 224 210 213 209 201 203 198 207 210 205 196 192 193 191 166 186 221 230 236 241 232 230 223 220 155 128 16 242 142 150 186 244 265 254 245 156 241 264 300 324 316 332 325 319 317 322 322
244 240 235 246 230 229 224 213 202 206 200 197 200 204 197 202 201 199 203 200 203 210 200 155 197 228 239 230 218 223 223 239 255 225 176 217 198 127 275 266 262 336 347 347 296 316 307 298 309 326 326 319 315 314
234 233 231 240 222 222 222 202 201 199 196 189 182 183 185 186 198 198 213 231 214 212 250 70 198 264 108 120 126 184 194 208 208 201 187 201 196 199 189 251 51 345 331 323 287 303 300 302 310 309 327 324 322 318
227 229 227 232 205 220 199 199 194 195 188 179 180 182 182 193 196 187 190 204 204 193 238 51 23 171 150 116 126 165 195 167 197 169 203 183 222 202 165 222 311 338 333 342 348 334 335 321 321 327 325 331 332 323
220 223 222 235 203 203 206 196 192 181 172 169 173 176 178 188 191 212 222 286 174 175 194 111 275 211 167 153 130 148 147 174 187 211 206 205 168 251 245 276 342 343 341 353 345 348 322 329 339 341 337 337 335 338
216 217 219 225 200 198 205 186 174 160 155 154 148 143 151 179 196 211 199 182 171 194 169 141 146 215 163 152 130 135 159 144 187 171 240 154 266 224 207 315 329 339 338 326 343 355 354 348 348 349 348 346 340 338
212 216 216 218 227 196 188 163 159 156 149 150 153 136 161 183 141 155 157 173 199 218 211 182 155 147 165 160 145 111 149 174 121 246 172 120 240 204 237 316 335 350 355 352 349 354 353 352 350 349 348 344 340 338
218 212 216 218 209 170 155 150 145 149 151 145 138 132 147 152 155 171 154 166 168 345 206 211 182 150 187 130 185 180 173 169 196 252 147 236 262 223 214 354 7 12 9 7 357 353 351 346 344 343 345 345 342 340
205 214 211 184 169 150 149 147 154 158 153 149 133 134 151 164 195 137 143 92 126 216 190 172 196 141 147 160 108 165 161 189 235 142 92 260 240 176 164 21 26 21 14 13 7 1 358 358 352 344 343 341 342 342
194 205 166 152 149 150 151 158 166 165 149 142 143 146 155 163 150 167 183 272 272 196 182 160 136 159 129 152 87 112 173 223 127 92 224 227 185 195 223 1 17 16 13 9 9 6 1 357 356 350 345 344 344 345
180 157 150 149 152 152 155 167 164 160 155 133 149 135 163 230 253 186 182 187 197 189 159 146 114 127 115 114 161 184 208 90 65 265 231 216 187 213 226 330 352 5 7 7 7 5 1 355 352 350 346 347 346 349
129 133 141 144 146 152 158 163 164 167 159 142 156 193 191 205 205 221 202 187 159 160 154 118 91 113 122 102 195 103 83 246 207 227 215 173 143 102 244 273 330 347 358 2 1 360 356 353 348 346 344 347 345 347
122 131 139 147 150 152 154 163 161 155 143 138 166 95 124 91 233 194 189 165 148 154 137 111 108 74 197 149 166 208 142 215 244 214 168 172 341 351 349 341 342 343 348 353 354 352 349 348 346 343 341 336 340 345
146 135 150 153 150 155 163 158 152 140 166 181 224 216 184 183 191 179 176 161 159 160 149 118 107 209 104 118 240 192 199 219 163 172 234 273 298 332 339 341 340 338 340 340 341 343 343 341 341 336 332 329 336 341
146 155 167 166 159 165 168 124 107 114 149 174 161 194 197 202 174 188 186 172 162 177 146 180 135 134 189 175 250 238 240 301 308 305 303 307 319 319 320 324 323 322 327 328 329 330 333 331 331 330 326 322 324 331
148 142 155 170 174 160 112 106 110 161 173 159 173 169 180 199 202 186 184 177 182 161 135 149 107 197 230 214 226 270 283 284 288 293 295 299 301 302 303 307 310 311 316 318 318 320 324 322 322 322 318 313 305 307
156 147 138 109 123 110 106 116 163 175 166 161 141 158 175 155 168 180 178 181 160 146 142 156 211 226 229 253 267 272 281 287 289 290 291 293 296 297 298 299 303 301 305 307 308 310 314 311 312 310 305 300 289 287
148 129 104 112 111 114 113 150 154 127 135 122 135 141 150 155 165 183 196 206 193 202 223 233 245 257 263 268 271 275 279 283 285 290 286 285 292 290 290 291 292 292 293 296 298 301 302 300 298 295 287 281 266 253
154 154 143 90 86 95 95 88 112 107 90 118 122 136 157 170 181 192 195 192 220 231 234 248 258 265 272 277 286 290 291 291 290 289 289 287 286 287 285 286 284 281 281 284 286 289 288 285 280 272 266 256 232 200
163 165 115 72 80 58 74 115 102 102 108 135 136 50 334 276 189 163 218 222 231 247 252 257 265 270 275 280 284 283 285 287 288 288 288 285 281 276 274 273 273 274 275 275 276 273 269 263 252 243 237 219 199 182
161 160 155 137 110 138 139 90 87 94 98 74 102 266 270 219 168 182 251 246 248 258 263 271 272 272 276 279 281 285 285 280 288 291 286 285 282 278 276 272 267 265 265 265 261 254 243 232 223 216 208 197 184 175
157 173 166 116 143 113 86 80 7 72 171 170 151 269 259 161 176 222 232 263 269 277 285 284 277 272 271 288 293 291 283 279 286 289 292 290 281 276 271 264 260 255 251 246 239 227 216 208 204 197 191 185 178 166
172 193 175 183 171 156 177 157 189 187 145 163 222 152 129 127 170 247 234 259 268 280 286 286 282 282 289 291 287 286 287 292 295 296 297 290 278 269 265 258 252 244 237 226 219 209 201 195 187 182 179 176 171 160
201 230 182 166 165 145 103 105 146 136 165 193 184 143 122 170 238 245 253 264 272 281 282 276 280 282 288 289 289 292 293 296 295 294 293 288 279 264 252 251 248 237 218 206 200 201 194 184 179 176 170 162 157 157
206 185 171 174 159 169 140 147 162 192 198 179 136 176 182 197 224 254 270 282 284 281 278 284 286 291 292 293 296 296 297 293 291 290 286 283 272 254 226 211 201 195 192 187 184 182 184 180 172 166 160 154 152 148
184 169 149 128 134 182 201 184 203 207 194 175 178 203 225 238 258 266 275 280 280 277 279 288 291 291 292 295 296 293 289 279 269 262 275 283 246 189 172 173 174 167 167 165 164 169 169 166 160 156 154 151 146 141
185 166 137 159 164 207 206 197 217 206 203 212 230 243 252 256 264 270 272 275 280 285 287 284 284 285 288 290 288 291 266 239 214 223 283 284 247 190 169 164 160 159 158 158 155 154 154 153 152 153 151 147 143 139
167 179 146 171 206 206 207 208 214 211 220 232 238 242 252 267 270 277 280 281 281 279 276 274 276 275 276 274 269 257 235 212 204 222 246 248 196 174 161 156 157 154 151 150 149 149 151 153 151 149 147 142 138 137
176 190 175 188 234 197 189 195 210 213 231 231 240 237 251 251 261 279 275 279 276 268 266 264 264 265 241 225 213 195 190 196 213 217 210 184 167 159 152 150 149 148 149 149 149 150 150 148 147 146 142 139 138 138
131 152 136 123 118 158 185 175 186 278 239 245 231 229 223 231 241 265 265 263 259 260 257 252 240 219 193 182 174 171 177 185 173 158 146 145 146 149 150 149 148 149 149 147 145 146 148 147 144 141 140 139 139 138